| time (UTC) | temp F | wind direction | speed MPH | gust MPH | rain 1hr in | rain 24hr in | rain mn in | humidity % | barometer mb |
| 20260505195528 | 42 | 226 | 4.0 | 13.0 | 0.00 | 0.00 | 0.00 | 47 | 1011.7 |
| 20260505195031 | 43 | 274 | 5.0 | 13.0 | 0.00 | 0.00 | 0.00 | 46 | 1011.8 |
| 20260505194547 | 43 | 340 | 3.0 | 15.0 | 0.00 | 0.00 | 0.00 | 46 | 1011.7 |
| 20260505194029 | 43 | 312 | 6.0 | 15.0 | 0.00 | 0.00 | 0.00 | 46 | 1011.8 |
| 20260505193531 | 42 | 297 | 5.0 | 11.0 | 0.00 | 0.00 | 0.00 | 46 | 1011.7 |
| 20260505193045 | 43 | 314 | 4.0 | 9.0 | 0.00 | 0.00 | 0.00 | 47 | 1011.8 |
| 20260505192528 | 42 | 323 | 3.0 | 9.0 | 0.00 | 0.00 | 0.00 | 47 | 1011.6 |
| 20260505192028 | 42 | 283 | 4.0 | 9.0 | 0.00 | 0.00 | 0.00 | 46 | 1011.6 |
| 20260505191550 | 42 | 261 | 3.0 | 9.0 | 0.00 | 0.00 | 0.00 | 47 | 1011.6 |
| 20260505191029 | 43 | 297 | 2.0 | 9.0 | 0.00 | 0.00 | 0.00 | 47 | 1011.6 |
| 20260505190529 | 42 | 63 | 3.0 | 7.0 | 0.00 | 0.00 | 0.00 | 46 | 1011.6 |
| 20260505190044 | 42 | 300 | 4.0 | 8.0 | 0.00 | 0.00 | 0.00 | 46 | 1011.5 |
| 20260505185528 | 42 | 276 | 2.0 | 8.0 | 0.00 | 0.00 | 0.00 | 47 | 1011.5 |
| 20260505185026 | 42 | 293 | 3.0 | 9.0 | 0.00 | 0.00 | 0.00 | 47 | 1011.4 |
| 20260505184548 | 42 | 342 | 3.0 | 9.0 | 0.00 | 0.00 | 0.00 | 48 | 1011.5 |
| 20260505184026 | 42 | 15 | 3.0 | 8.0 | 0.00 | 0.00 | 0.00 | 48 | 1011.4 |
| 20260505183525 | 42 | 330 | 4.0 | 10.0 | 0.00 | 0.00 | 0.00 | 47 | 1011.4 |
| 20260505183048 | 42 | 319 | 2.0 | 10.0 | 0.00 | 0.00 | 0.00 | 48 | 1011.3 |
| 20260505182531 | 42 | 340 | 3.0 | 8.0 | 0.00 | 0.00 | 0.00 | 47 | 1011.2 |
| 20260505182028 | 42 | 2 | 2.0 | 8.0 | 0.00 | 0.00 | 0.00 | 48 | 1011.3 |
| 20260505181544 | 42 | 323 | 2.0 | 9.0 | 0.00 | 0.00 | 0.00 | 48 | 1011.2 |
| 20260505181031 | 41 | 284 | 2.0 | 9.0 | 0.00 | 0.00 | 0.00 | 49 | 1011.4 |
| 20260505180532 | 41 | 295 | 3.0 | 11.0 | 0.00 | 0.00 | 0.00 | 48 | 1011.3 |
| 20260505180047 | 41 | 265 | 4.0 | 11.0 | 0.00 | 0.00 | 0.00 | 48 | 1011.2 |
| 20260505175529 | 42 | 258 | 4.0 | 8.0 | 0.00 | 0.00 | 0.00 | 49 | 1011.2 |
| 20260505175028 | 41 | 264 | 1.0 | 8.0 | 0.00 | 0.00 | 0.00 | 50 | 1011.2 |
| 20260505174543 | 41 | 357 | 4.0 | 9.0 | 0.00 | 0.00 | 0.00 | 49 | 1011.1 |
| 20260505174027 | 41 | 296 | 2.0 | 9.0 | 0.00 | 0.00 | 0.00 | 49 | 1011.1 |
| 20260505173525 | 41 | 290 | 2.0 | 9.0 | 0.00 | 0.00 | 0.00 | 51 | 1011.2 |
| 20260505173047 | 40 | 307 | 3.0 | 10.0 | 0.00 | 0.00 | 0.00 | 51 | 1011.2 |
| 20260505172524 | 40 | 297 | 3.0 | 12.0 | 0.00 | 0.00 | 0.00 | 52 | 1011.2 |
| 20260505172027 | 40 | 302 | 3.0 | 12.0 | 0.00 | 0.00 | 0.00 | 51 | 1011.2 |
| 20260505171547 | 40 | 253 | 3.0 | 12.0 | 0.00 | 0.00 | 0.00 | 50 | 1011.1 |
| 20260505171028 | 40 | 297 | 3.0 | 12.0 | 0.00 | 0.00 | 0.00 | 51 | 1011.2 |
| 20260505170528 | 40 | 311 | 2.0 | 9.0 | 0.00 | 0.00 | 0.00 | 50 | 1011.2 |
| 20260505170047 | 40 | 302 | 3.0 | 15.0 | 0.00 | 0.00 | 0.00 | 51 | 1011.1 |
| 20260505165525 | 40 | 308 | 5.0 | 15.0 | 0.00 | 0.00 | 0.00 | 51 | 1011.1 |
| 20260505165025 | 41 | 316 | 3.0 | 7.0 | 0.00 | 0.00 | 0.00 | 51 | 1011.0 |
| 20260505164548 | 41 | 292 | 2.0 | 12.0 | 0.00 | 0.00 | 0.00 | 52 | 1011.0 |
| 20260505164028 | 40 | 172 | 3.0 | 14.0 | 0.00 | 0.00 | 0.00 | 52 | 1011.0 |
| 20260505163528 | 40 | 278 | 5.0 | 14.0 | 0.00 | 0.00 | 0.00 | 50 | 1011.0 |
| 20260505163049 | 41 | 332 | 3.0 | 8.0 | 0.00 | 0.00 | 0.00 | 52 | 1011.0 |
| 20260505162528 | 41 | 65 | 3.0 | 12.0 | 0.00 | 0.00 | 0.00 | 53 | 1010.8 |
| 20260505162028 | 40 | 87 | 2.0 | 12.0 | 0.00 | 0.00 | 0.00 | 54 | 1010.8 |
| 20260505161543 | 39 | 234 | 5.0 | 11.0 | 0.00 | 0.00 | 0.00 | 55 | 1011.0 |
| 20260505161031 | 39 | 262 | 3.0 | 11.0 | 0.00 | 0.00 | 0.00 | 55 | 1010.9 |
| 20260505160526 | 39 | 286 | 4.0 | 11.0 | 0.00 | 0.00 | 0.00 | 56 | 1010.8 |
| 20260505153051 | 39 | 349 | 3.0 | 11.0 | 0.00 | 0.00 | 0.00 | 56 | 1010.8 |
| 20260505152528 | 39 | 292 | 4.0 | 10.0 | 0.00 | 0.00 | 0.00 | 55 | 1010.8 |
| 20260505152030 | 39 | 294 | 3.0 | 10.0 | 0.00 | 0.00 | 0.00 | 56 | 1010.6 |
| 20260505151547 | 38 | 32 | 4.0 | 10.0 | 0.00 | 0.00 | 0.00 | 55 | 1010.7 |
| 20260505151028 | 38 | 325 | 3.0 | 8.0 | 0.00 | 0.00 | 0.00 | 56 | 1010.6 |
| 20260505150529 | 38 | 300 | 3.0 | 10.0 | 0.00 | 0.00 | 0.00 | 55 | 1010.5 |
| 20260505140530 | 38 | 6 | 2.0 | 7.0 | 0.00 | 0.00 | 0.00 | 55 | 1010.2 |
| 20260505125028 | 34 | 299 | 2.0 | 7.0 | 0.00 | 0.00 | 0.00 | 58 | 1009.7 |
| 20260505124543 | 34 | 267 | 2.0 | 8.0 | 0.00 | 0.00 | 0.00 | 58 | 1009.5 |
| 20260505124027 | 34 | 86 | 2.0 | 8.0 | 0.00 | 0.00 | 0.00 | 58 | 1009.5 |
| 20260505123527 | 34 | 310 | 2.0 | 8.0 | 0.00 | 0.00 | 0.00 | 58 | 1009.4 |
| 20260505123045 | 34 | 317 | 1.0 | 9.0 | 0.00 | 0.00 | 0.00 | 59 | 1009.5 |
| 20260505122528 | 34 | 340 | 2.0 | 9.0 | 0.00 | 0.00 | 0.00 | 58 | 1009.3 |
| 20260505122028 | 34 | 16 | 1.0 | 6.0 | 0.00 | 0.00 | 0.00 | 59 | 1009.3 |
| 20260505121548 | 34 | 290 | 1.0 | 4.0 | 0.00 | 0.00 | 0.00 | 59 | 1009.2 |
| 20260505121028 | 34 | 288 | 0.0 | 2.0 | 0.00 | 0.00 | 0.00 | 59 | 1009.1 |
| 20260505120531 | 34 | 0 | 1.0 | 4.0 | 0.00 | 0.00 | 0.00 | 59 | 1009.0 |
| 20260505120040 | 34 | 273 | 1.0 | 4.0 | 0.00 | 0.00 | 0.00 | 59 | 1009.0 |
| 20260505115528 | 34 | 320 | 1.0 | 6.0 | 0.00 | 0.00 | 0.00 | 59 | 1008.9 |
| 20260505115028 | 33 | 294 | 2.0 | 6.0 | 0.00 | 0.00 | 0.00 | 58 | 1008.8 |
| 20260505114541 | 33 | 0 | 1.0 | 7.0 | 0.00 | 0.00 | 0.00 | 59 | 1008.7 |
| 20260505114028 | 33 | 294 | 2.0 | 7.0 | 0.00 | 0.00 | 0.00 | 59 | 1008.7 |
| 20260505113527 | 33 | 231 | 0.0 | 6.0 | 0.00 | 0.00 | 0.00 | 59 | 1008.6 |
| 20260505113052 | 33 | 290 | 1.0 | 6.0 | 0.00 | 0.00 | 0.00 | 59 | 1008.6 |
| 20260505112527 | 33 | 297 | 1.0 | 6.0 | 0.00 | 0.00 | 0.00 | 59 | 1008.5 |
| 20260505112028 | 33 | 270 | 1.0 | 6.0 | 0.00 | 0.00 | 0.00 | 59 | 1008.4 |
| 20260505111548 | 33 | 0 | 1.0 | 6.0 | 0.00 | 0.00 | 0.00 | 59 | 1008.5 |
| 20260505111029 | 33 | 297 | 1.0 | 5.0 | 0.00 | 0.00 | 0.00 | 58 | 1008.4 |
| 20260505110529 | 33 | 278 | 0.0 | 4.0 | 0.00 | 0.00 | 0.00 | 59 | 1008.3 |
| 20260505102029 | 33 | 292 | 0.0 | 4.0 | 0.00 | 0.00 | 0.00 | 59 | 1008.4 |
| 20260505101544 | 33 | 332 | 0.0 | 6.0 | 0.00 | 0.00 | 0.00 | 59 | 1008.3 |
| 20260505101029 | 33 | 321 | 1.0 | 6.0 | 0.00 | 0.00 | 0.00 | 59 | 1008.3 |
| 20260505100529 | 33 | 328 | 1.0 | 6.0 | 0.00 | 0.00 | 0.00 | 59 | 1008.4 |
| 20260505100041 | 33 | 298 | 1.0 | 6.0 | 0.00 | 0.00 | 0.00 | 59 | 1008.4 |
| 20260505095528 | 33 | 32 | 1.0 | 5.0 | 0.00 | 0.00 | 0.00 | 59 | 1008.3 |
| 20260505095027 | 33 | 330 | 1.0 | 5.0 | 0.00 | 0.00 | 0.00 | 59 | 1008.3 |
| 20260505094557 | 33 | 289 | 2.0 | 6.0 | 0.00 | 0.00 | 0.00 | 59 | 1008.3 |
| 20260505094027 | 33 | 313 | 1.0 | 6.0 | 0.00 | 0.00 | 0.00 | 59 | 1008.2 |
| 20260505093530 | 33 | 317 | 1.0 | 6.0 | 0.00 | 0.00 | 0.00 | 59 | 1008.3 |
| 20260505093217 | 33 | 262 | 1.0 | 5.0 | 0.00 | 0.00 | 0.00 | 59 | 1008.3 |
| 20260505092527 | 33 | 214 | 1.0 | 7.0 | 0.00 | 0.00 | 0.00 | 58 | 1008.3 |
| 20260505092026 | 33 | 285 | 2.0 | 7.0 | 0.00 | 0.00 | 0.00 | 59 | 1008.3 |
| 20260505091542 | 33 | 316 | 1.0 | 5.0 | 0.00 | 0.00 | 0.00 | 59 | 1008.2 |
| 20260505091029 | 33 | 271 | 0.0 | 5.0 | 0.00 | 0.00 | 0.00 | 59 | 1008.2 |
| 20260505090528 | 33 | 287 | 1.0 | 6.0 | 0.00 | 0.00 | 0.00 | 59 | 1008.2 |
| 20260505090057 | 33 | 324 | 2.0 | 6.0 | 0.00 | 0.00 | 0.00 | 59 | 1008.0 |
| 20260505085528 | 33 | 281 | 1.0 | 7.0 | 0.00 | 0.00 | 0.00 | 58 | 1008.0 |
| 20260505085030 | 34 | 291 | 1.0 | 7.0 | 0.00 | 0.00 | 0.00 | 57 | 1008.0 |
| 20260505084548 | 34 | 281 | 2.0 | 7.0 | 0.00 | 0.00 | 0.00 | 57 | 1008.0 |
| 20260505084027 | 34 | 0 | 1.0 | 8.0 | 0.00 | 0.00 | 0.00 | 57 | 1007.9 |
| 20260505083531 | 34 | 319 | 2.0 | 8.0 | 0.00 | 0.00 | 0.00 | 57 | 1007.7 |
| 20260505083102 | 34 | 352 | 0.0 | 4.0 | 0.00 | 0.00 | 0.00 | 58 | 1007.8 |
| 20260505082527 | 34 | 276 | 1.0 | 7.0 | 0.00 | 0.00 | 0.00 | 58 | 1007.6 |
| 20260505082027 | 34 | 303 | 2.0 | 7.0 | 0.00 | 0.00 | 0.00 | 57 | 1007.6 |
| 20260505081547 | 34 | 0 | 1.0 | 7.0 | 0.00 | 0.00 | 0.00 | 57 | 1007.6 |
| 20260505081028 | 35 | 273 | 2.0 | 7.0 | 0.00 | 0.00 | 0.00 | 57 | 1007.6 |
| 20260505080527 | 35 | 305 | 3.0 | 7.0 | 0.00 | 0.00 | 0.00 | 58 | 1007.7 |
| 20260505080046 | 35 | 256 | 1.0 | 6.0 | 0.00 | 0.00 | 0.00 | 59 | 1007.6 |
| 20260505075525 | 35 | 271 | 1.0 | 5.0 | 0.00 | 0.00 | 0.00 | 60 | 1007.6 |
| 20260505075027 | 35 | 307 | 1.0 | 5.0 | 0.00 | 0.00 | 0.00 | 60 | 1007.5 |
| 20260505074542 | 35 | 290 | 0.0 | 5.0 | 0.00 | 0.00 | 0.00 | 61 | 1007.6 |
| 20260505074027 | 35 | 268 | 2.0 | 5.0 | 0.00 | 0.00 | 0.00 | 61 | 1007.5 |
| 20260505073526 | 35 | 256 | 0.0 | 6.0 | 0.00 | 0.00 | 0.00 | 61 | 1007.5 |
| 20260505073050 | 36 | 0 | 2.0 | 6.0 | 0.00 | 0.00 | 0.00 | 60 | 1007.5 |
| 20260505072527 | 36 | 297 | 1.0 | 6.0 | 0.00 | 0.00 | 0.00 | 59 | 1007.5 |
| 20260505072027 | 36 | 280 | 1.0 | 4.0 | 0.00 | 0.00 | 0.00 | 59 | 1007.5 |
| 20260505071545 | 36 | 287 | 1.0 | 6.0 | 0.00 | 0.00 | 0.00 | 60 | 1007.4 |
| 20260505071028 | 36 | 297 | 1.0 | 6.0 | 0.00 | 0.00 | 0.00 | 60 | 1007.4 |
| 20260505070528 | 36 | 303 | 1.0 | 6.0 | 0.00 | 0.00 | 0.00 | 61 | 1007.3 |
| 20260505070100 | 37 | 310 | 2.0 | 7.0 | 0.00 | 0.00 | 0.00 | 61 | 1007.4 |
| 20260505065527 | 37 | 313 | 1.0 | 7.0 | 0.00 | 0.00 | 0.00 | 61 | 1007.4 |
| 20260505065027 | 37 | 259 | 2.0 | 8.0 | 0.00 | 0.00 | 0.00 | 61 | 1007.3 |
| 20260505064554 | 37 | 303 | 2.0 | 8.0 | 0.00 | 0.00 | 0.00 | 62 | 1007.4 |
| 20260505064027 | 37 | 248 | 1.0 | 6.0 | 0.00 | 0.00 | 0.00 | 63 | 1007.4 |
| 20260505063527 | 37 | 81 | 1.0 | 6.0 | 0.00 | 0.00 | 0.00 | 64 | 1007.3 |
| 20260505063044 | 37 | 286 | 0.0 | 7.0 | 0.00 | 0.00 | 0.00 | 63 | 1007.3 |
| 20260505062527 | 37 | 260 | 1.0 | 7.0 | 0.00 | 0.00 | 0.00 | 63 | 1007.3 |
| 20260505062027 | 37 | 269 | 2.0 | 7.0 | 0.00 | 0.00 | 0.00 | 62 | 1007.3 |
| 20260505061608 | 38 | 265 | 1.0 | 8.0 | 0.00 | 0.00 | 0.00 | 62 | 1007.2 |
| 20260505061029 | 38 | 269 | 2.0 | 8.0 | 0.00 | 0.00 | 0.00 | 62 | 1007.0 |
| 20260505060527 | 38 | 288 | 2.0 | 5.0 | 0.00 | 0.00 | 0.00 | 62 | 1007.2 |
| 20260505060048 | 38 | 303 | 1.0 | 8.0 | 0.00 | 0.00 | 0.00 | 62 | 1007.2 |
| 20260505055527 | 38 | 264 | 3.0 | 10.0 | 0.00 | 0.00 | 0.00 | 61 | 1007.3 |
| 20260505055027 | 38 | 346 | 2.0 | 10.0 | 0.00 | 0.00 | 0.00 | 61 | 1007.1 |
| 20260505054547 | 39 | 258 | 2.0 | 10.0 | 0.00 | 0.00 | 0.00 | 61 | 1007.1 |
| 20260505054027 | 39 | 308 | 3.0 | 8.0 | 0.00 | 0.00 | 0.00 | 61 | 1007.0 |
| 20260505053530 | 39 | 300 | 2.0 | 5.0 | 0.00 | 0.00 | 0.00 | 61 | 1006.9 |
| 20260505053042 | 39 | 274 | 1.0 | 5.0 | 0.00 | 0.00 | 0.00 | 62 | 1006.8 |
| 20260505052529 | 38 | 259 | 1.0 | 5.0 | 0.00 | 0.00 | 0.00 | 62 | 1006.8 |
| 20260505052029 | 38 | 285 | 2.0 | 11.0 | 0.00 | 0.00 | 0.00 | 62 | 1006.8 |
| 20260505051538 | 38 | 298 | 1.0 | 11.0 | 0.00 | 0.00 | 0.00 | 62 | 1006.7 |
| 20260505051030 | 38 | 261 | 2.0 | 7.0 | 0.00 | 0.00 | 0.00 | 62 | 1006.6 |
| 20260505050529 | 38 | 0 | 1.0 | 6.0 | 0.00 | 0.00 | 0.00 | 63 | 1006.6 |
| 20260505041548 | 40 | 297 | 1.0 | 5.0 | 0.00 | 0.00 | 0.00 | 61 | 1006.5 |
| 20260505041029 | 40 | 352 | 2.0 | 6.0 | 0.00 | 0.00 | 0.00 | 61 | 1006.6 |
| 20260505040532 | 40 | 299 | 1.0 | 8.0 | 0.00 | 0.00 | 0.00 | 60 | 1006.7 |
| 20260505040059 | 40 | 316 | 2.0 | 8.0 | 0.00 | 0.00 | 0.00 | 60 | 1006.6 |
| 20260505035533 | 40 | 301 | 2.0 | 8.0 | 0.00 | 0.00 | 0.00 | 59 | 1006.6 |
| 20260505035029 | 41 | 302 | 2.0 | 8.0 | 0.00 | 0.00 | 0.00 | 58 | 1006.6 |
| 20260505034544 | 41 | 79 | 3.0 | 11.0 | 0.00 | 0.00 | 0.00 | 58 | 1006.5 |
| 20260505034029 | 41 | 311 | 2.0 | 11.0 | 0.00 | 0.00 | 0.00 | 57 | 1006.5 |
| 20260505033529 | 41 | 327 | 3.0 | 11.0 | 0.00 | 0.00 | 0.00 | 57 | 1006.5 |
| 20260505033041 | 41 | 250 | 3.0 | 9.0 | 0.00 | 0.00 | 0.00 | 56 | 1006.5 |
| 20260505032529 | 42 | 293 | 3.0 | 13.0 | 0.00 | 0.00 | 0.00 | 55 | 1006.4 |
| 20260505032033 | 42 | 300 | 2.0 | 13.0 | 0.00 | 0.00 | 0.00 | 55 | 1006.4 |
| 20260505031549 | 42 | 285 | 5.0 | 13.0 | 0.00 | 0.00 | 0.00 | 54 | 1006.5 |
| 20260505031030 | 42 | 295 | 4.0 | 10.0 | 0.00 | 0.00 | 0.00 | 54 | 1006.5 |
| 20260505030529 | 42 | 289 | 3.0 | 9.0 | 0.00 | 0.00 | 0.00 | 54 | 1006.4 |
| 20260505030047 | 42 | 318 | 3.0 | 9.0 | 0.00 | 0.00 | 0.00 | 54 | 1006.4 |
| 20260505025532 | 42 | 236 | 2.0 | 6.0 | 0.00 | 0.00 | 0.00 | 54 | 1006.3 |
| 20260505025033 | 42 | 297 | 2.0 | 8.0 | 0.00 | 0.00 | 0.00 | 55 | 1006.2 |
| 20260505024545 | 43 | 302 | 2.0 | 8.0 | 0.00 | 0.00 | 0.00 | 54 | 1006.1 |
| 20260505024029 | 43 | 340 | 2.0 | 9.0 | 0.00 | 0.00 | 0.00 | 54 | 1006.1 |
| 20260505023529 | 43 | 276 | 3.0 | 9.0 | 0.00 | 0.00 | 0.00 | 53 | 1006.1 |
| 20260505023047 | 43 | 279 | 2.0 | 9.0 | 0.00 | 0.00 | 0.00 | 53 | 1006.0 |
| 20260505022529 | 43 | 317 | 3.0 | 7.0 | 0.00 | 0.00 | 0.00 | 53 | 1006.0 |
| 20260505022029 | 43 | 274 | 2.0 | 7.0 | 0.00 | 0.00 | 0.00 | 53 | 1006.0 |
| 20260505021543 | 43 | 288 | 1.0 | 7.0 | 0.00 | 0.00 | 0.00 | 53 | 1005.8 |
| 20260505021032 | 43 | 233 | 3.0 | 9.0 | 0.00 | 0.00 | 0.00 | 53 | 1005.7 |
| 20260505020529 | 43 | 304 | 2.0 | 9.0 | 0.00 | 0.00 | 0.00 | 52 | 1005.7 |
| 20260505020042 | 43 | 261 | 2.0 | 9.0 | 0.00 | 0.00 | 0.00 | 53 | 1005.6 |
| 20260505015529 | 43 | 314 | 3.0 | 9.0 | 0.00 | 0.00 | 0.00 | 53 | 1005.5 |
| 20260505015031 | 43 | 314 | 3.0 | 6.0 | 0.00 | 0.00 | 0.00 | 53 | 1005.4 |
| 20260505014549 | 43 | 278 | 1.0 | 9.0 | 0.00 | 0.00 | 0.00 | 53 | 1005.4 |
| 20260505014031 | 43 | 234 | 2.0 | 9.0 | 0.00 | 0.00 | 0.00 | 53 | 1005.3 |
| 20260505013528 | 43 | 309 | 2.0 | 7.0 | 0.00 | 0.00 | 0.00 | 52 | 1005.3 |
| 20260505013045 | 43 | 325 | 3.0 | 11.0 | 0.00 | 0.00 | 0.00 | 52 | 1005.3 |
| 20260505012529 | 43 | 295 | 3.0 | 11.0 | 0.00 | 0.00 | 0.00 | 52 | 1005.2 |
| 20260505012029 | 43 | 264 | 3.0 | 11.0 | 0.00 | 0.00 | 0.00 | 51 | 1005.2 |
| 20260505011548 | 43 | 321 | 3.0 | 8.0 | 0.00 | 0.00 | 0.00 | 51 | 1005.1 |
| 20260505011029 | 44 | 259 | 2.0 | 8.0 | 0.00 | 0.00 | 0.00 | 51 | 1005.0 |
| 20260505010529 | 44 | 246 | 1.0 | 8.0 | 0.00 | 0.00 | 0.00 | 50 | 1004.9 |
| 20260505010056 | 44 | 302 | 2.0 | 8.0 | 0.00 | 0.00 | 0.00 | 50 | 1004.9 |
| 20260505005529 | 44 | 327 | 3.0 | 8.0 | 0.00 | 0.00 | 0.00 | 49 | 1004.9 |
| 20260505005029 | 44 | 345 | 2.0 | 9.0 | 0.00 | 0.00 | 0.00 | 50 | 1005.0 |
| 20260505004543 | 44 | 343 | 3.0 | 9.0 | 0.00 | 0.00 | 0.00 | 49 | 1004.9 |
| 20260505004028 | 44 | 305 | 2.0 | 11.0 | 0.00 | 0.00 | 0.00 | 48 | 1004.8 |
| 20260505003528 | 45 | 351 | 1.0 | 11.0 | 0.00 | 0.00 | 0.00 | 47 | 1004.8 |
| 20260505003044 | 45 | 226 | 4.0 | 11.0 | 0.00 | 0.00 | 0.00 | 46 | 1004.7 |
| 20260505002529 | 45 | 264 | 1.0 | 8.0 | 0.00 | 0.00 | 0.00 | 47 | 1004.7 |
| 20260505002030 | 45 | 264 | 3.0 | 9.0 | 0.00 | 0.00 | 0.00 | 46 | 1004.7 |
| 20260505001545 | 45 | 308 | 3.0 | 9.0 | 0.00 | 0.00 | 0.00 | 45 | 1004.6 |
| 20260505001029 | 45 | 271 | 4.0 | 9.0 | 0.00 | 0.00 | 0.00 | 45 | 1004.5 |
| 20260505000528 | 45 | 264 | 1.0 | 9.0 | 0.00 | 0.00 | 0.00 | 45 | 1004.6 |
| 20260505000054 | 45 | 278 | 3.0 | 9.0 | 0.00 | 0.00 | 0.00 | 44 | 1004.5 |
| 20260504235529 | 45 | 278 | 2.0 | 7.0 | 0.00 | 0.00 | 0.00 | 44 | 1004.5 |
| 20260504235029 | 45 | 281 | 2.0 | 7.0 | 0.00 | 0.00 | 0.00 | 44 | 1004.4 |
| 20260504234543 | 45 | 301 | 2.0 | 8.0 | 0.00 | 0.00 | 0.00 | 43 | 1004.4 |
| 20260504234029 | 45 | 240 | 2.0 | 8.0 | 0.00 | 0.00 | 0.00 | 44 | 1004.4 |
| 20260504233529 | 45 | 286 | 3.0 | 10.0 | 0.00 | 0.00 | 0.00 | 44 | 1004.4 |
| 20260504233041 | 45 | 274 | 4.0 | 10.0 | 0.00 | 0.00 | 0.00 | 43 | 1004.3 |
| 20260504232529 | 46 | 346 | 2.0 | 10.0 | 0.00 | 0.00 | 0.00 | 43 | 1004.3 |
| 20260504232028 | 46 | 247 | 3.0 | 10.0 | 0.00 | 0.00 | 0.00 | 42 | 1004.3 |
| 20260504231550 | 46 | 280 | 3.0 | 13.0 | 0.00 | 0.00 | 0.00 | 42 | 1004.2 |
| 20260504231028 | 46 | 274 | 3.0 | 14.0 | 0.00 | 0.00 | 0.00 | 42 | 1004.3 |
| 20260504230529 | 46 | 241 | 3.0 | 14.0 | 0.00 | 0.00 | 0.00 | 42 | 1004.4 |
| 20260504230048 | 46 | 320 | 3.0 | 13.0 | 0.00 | 0.00 | 0.00 | 41 | 1004.1 |
| 20260504225533 | 46 | 274 | 2.0 | 15.0 | 0.00 | 0.00 | 0.00 | 41 | 1004.2 |
| 20260504225028 | 46 | 263 | 4.0 | 15.0 | 0.00 | 0.00 | 0.00 | 40 | 1004.1 |
| 20260504224545 | 46 | 319 | 3.0 | 12.0 | 0.00 | 0.00 | 0.00 | 41 | 1004.0 |
| 20260504224030 | 46 | 303 | 2.0 | 10.0 | 0.00 | 0.00 | 0.00 | 43 | 1004.0 |
| 20260504223528 | 46 | 306 | 3.0 | 12.0 | 0.00 | 0.00 | 0.00 | 43 | 1004.0 |
| 20260504223053 | 46 | 321 | 3.0 | 14.0 | 0.00 | 0.00 | 0.00 | 43 | 1004.0 |
| 20260504222529 | 46 | 349 | 6.0 | 14.0 | 0.00 | 0.00 | 0.00 | 44 | 1003.9 |
| 20260504222028 | 46 | 281 | 6.0 | 14.0 | 0.00 | 0.00 | 0.00 | 43 | 1003.9 |
| 20260504221549 | 46 | 349 | 4.0 | 17.0 | 0.00 | 0.00 | 0.00 | 45 | 1003.9 |
| 20260504221029 | 46 | 342 | 3.0 | 17.0 | 0.00 | 0.00 | 0.00 | 46 | 1003.9 |
| 20260504220529 | 46 | 259 | 4.0 | 12.0 | 0.00 | 0.00 | 0.00 | 46 | 1003.8 |
| 20260504220056 | 46 | 314 | 3.0 | 12.0 | 0.00 | 0.00 | 0.00 | 46 | 1003.8 |
| 20260504215529 | 46 | 292 | 4.0 | 12.0 | 0.00 | 0.00 | 0.00 | 46 | 1003.8 |
| 20260504215029 | 46 | 17 | 2.0 | 12.0 | 0.00 | 0.00 | 0.00 | 46 | 1003.5 |
| 20260504214546 | 46 | 275 | 4.0 | 10.0 | 0.00 | 0.00 | 0.00 | 46 | 1003.5 |
| 20260504214030 | 46 | 322 | 4.0 | 15.0 | 0.00 | 0.00 | 0.00 | 47 | 1003.6 |
| 20260504213529 | 46 | 337 | 5.0 | 15.0 | 0.00 | 0.00 | 0.00 | 46 | 1003.5 |
| 20260504213058 | 46 | 293 | 5.0 | 14.0 | 0.00 | 0.00 | 0.00 | 46 | 1003.6 |
| 20260504212529 | 46 | 47 | 3.0 | 14.0 | 0.00 | 0.00 | 0.00 | 46 | 1003.4 |
| 20260504212028 | 46 | 19 | 5.0 | 15.0 | 0.00 | 0.00 | 0.00 | 46 | 1003.4 |
| 20260504211551 | 46 | 323 | 5.0 | 15.0 | 0.00 | 0.00 | 0.00 | 46 | 1003.3 |
| 20260504211029 | 46 | 294 | 6.0 | 14.0 | 0.00 | 0.00 | 0.00 | 45 | 1003.4 |
| 20260504210530 | 46 | 277 | 6.0 | 15.0 | 0.00 | 0.00 | 0.00 | 45 | 1003.3 |
| 20260504210048 | 47 | 285 | 6.0 | 15.0 | 0.00 | 0.00 | 0.00 | 44 | 1003.2 |
| 20260504205530 | 47 | 300 | 3.0 | 13.0 | 0.00 | 0.00 | 0.00 | 45 | 1003.1 |
| 20260504205028 | 47 | 251 | 5.0 | 16.0 | 0.00 | 0.00 | 0.00 | 44 | 1003.0 |
| 20260504204555 | 47 | 314 | 4.0 | 16.0 | 0.00 | 0.00 | 0.00 | 46 | 1003.1 |
| 20260504204028 | 47 | 296 | 6.0 | 16.0 | 0.00 | 0.00 | 0.00 | 45 | 1003.0 |
| 20260504203528 | 47 | 337 | 5.0 | 10.0 | 0.00 | 0.00 | 0.00 | 43 | 1003.2 |
| 20260504203048 | 48 | 347 | 4.0 | 14.0 | 0.00 | 0.00 | 0.00 | 45 | 1002.9 |
| 20260504202528 | 47 | 260 | 3.0 | 14.0 | 0.00 | 0.00 | 0.00 | 46 | 1003.1 |
| 20260504202029 | 47 | 290 | 4.0 | 14.0 | 0.00 | 0.00 | 0.00 | 44 | 1003.1 |
| 20260504201541 | 47 | 15 | 3.0 | 10.0 | 0.00 | 0.00 | 0.00 | 46 | 1003.1 |
| 20260504201029 | 47 | 313 | 3.0 | 16.0 | 0.00 | 0.00 | 0.00 | 45 | 1003.0 |
| 20260504200529 | 47 | 293 | 4.0 | 16.0 | 0.00 | 0.00 | 0.00 | 46 | 1003.1 |
| 20260504200049 | 47 | 264 | 3.0 | 13.0 | 0.00 | 0.00 | 0.00 | 46 | 1003.0 |